TimeCDT,TemperatureF,Dew PointF,Humidity,Sea Level PressureIn,VisibilityMPH,Wind Direction,Wind SpeedMPH,Gust SpeedMPH,PrecipitationIn,Events,Conditions,WindDirDegrees,DateUTC
12:15 AM,54.0,47.1,78,30.23,0.8,SSE,8.1,-,N/A,,Haze,150,2012-10-13 05:15:00
12:35 AM,53.4,46.9,79,30.22,1.0,SSE,6.9,-,N/A,,Haze,150,2012-10-13 05:35:00
12:55 AM,52.9,46.9,80,30.23,0.5,SE,5.8,-,N/A,,Haze,140,2012-10-13 05:55:00
1:15 AM,52.2,47.3,83,30.21,2.0,SE,6.9,-,N/A,,Haze,130,2012-10-13 06:15:00
1:35 AM,52.2,47.5,84,30.20,2.5,SE,8.1,-,N/A,,Haze,130,2012-10-13 06:35:00
2:15 AM,52.2,48.2,86,30.18,3.0,SE,9.2,-,N/A,,Clear,130,2012-10-13 07:15:00
2:35 AM,52.0,48.4,88,30.17,5.0,SE,11.5,-,N/A,,Clear,130,2012-10-13 07:35:00
2:55 AM,52.5,48.7,87,30.16,2.0,SE,11.5,-,N/A,,Clear,140,2012-10-13 07:55:00
3:15 AM,52.7,49.1,88,30.15,2.0,SE,10.4,-,N/A,,Clear,140,2012-10-13 08:15:00
3:35 AM,52.3,49.3,89,30.13,2.0,SE,11.5,-,N/A,,Clear,140,2012-10-13 08:35:00
3:55 AM,52.7,49.8,90,30.13,1.2,SSE,11.5,-,N/A,,Mist,150,2012-10-13 08:55:00
5:35 AM,54.1,51.8,92,30.12,7.0,SSE,17.3,-,N/A,,Scattered Clouds,160,2012-10-13 10:35:00
5:55 AM,54.5,52.2,92,30.12,5.0,SSE,17.3,-,N/A,,Overcast,160,2012-10-13 10:55:00
6:15 AM,54.3,52.5,94,30.13,3.0,South,15.0,-,N/A,,Overcast,170,2012-10-13 11:15:00
6:35 AM,54.1,52.9,95,30.12,1.0,SSE,10.4,-,N/A,,Overcast,160,2012-10-13 11:35:00
7:15 AM,55.0,54.0,96,30.11,0.5,SSE,12.7,-,N/A,Fog,Fog,160,2012-10-13 12:15:00
7:55 AM,55.9,55.0,97,30.11,0.5,South,16.1,-,N/A,Fog,Fog,180,2012-10-13 12:55:00
8:15 AM,56.5,55.6,97,30.09,0.5,South,16.1,21.9,N/A,Fog,Fog,170,2012-10-13 13:15:00
8:55 AM,57.9,57.0,97,30.08,0.8,South,16.1,-,N/A,,Overcast,180,2012-10-13 13:55:00
9:15 AM,58.1,57.2,97,30.07,1.2,South,17.3,21.9,N/A,,Overcast,170,2012-10-13 14:15:00
9:35 AM,58.6,57.7,97,30.07,1.8,South,16.1,24.2,N/A,,Overcast,180,2012-10-13 14:35:00
9:55 AM,59.2,58.3,97,30.07,2.0,South,19.6,-,N/A,,Overcast,180,2012-10-13 14:55:00
10:15 AM,60.1,59.0,96,30.08,4.0,South,17.3,-,N/A,,Overcast,180,2012-10-13 15:15:00
11:35 AM,63.9,60.8,90,30.06,5.0,South,16.1,-,N/A,,Overcast,180,2012-10-13 16:35:00
11:55 AM,65.7,61.2,85,30.05,7.0,South,15.0,23.0,N/A,,Overcast,180,2012-10-13 16:55:00
12:15 PM,67.5,61.5,81,30.03,7.0,South,18.4,24.2,N/A,,Mostly Cloudy,180,2012-10-13 17:15:00
12:35 PM,67.8,61.7,81,30.02,7.0,South,20.7,-,N/A,,Scattered Clouds,180,2012-10-13 17:35:00
12:55 PM,68.5,61.9,79,30.00,7.0,South,19.6,25.3,N/A,,Mostly Cloudy,180,2012-10-13 17:55:00
1:15 PM,69.8,61.9,76,30.00,7.0,South,20.7,27.6,N/A,,Mostly Cloudy,180,2012-10-13 18:15:00
1:35 PM,71.6,62.4,73,29.99,10.0,SSW,21.9,25.3,N/A,,Mostly Cloudy,200,2012-10-13 18:35:00
2:15 PM,75.0,63.3,67,29.97,10.0,SSW,19.6,24.2,N/A,,Scattered Clouds,200,2012-10-13 19:15:00
2:35 PM,75.7,63.5,66,29.96,10.0,South,18.4,24.2,N/A,,Scattered Clouds,180,2012-10-13 19:35:00
2:55 PM,76.6,62.8,62,29.95,10.0,SSW,24.2,29.9,N/A,,Clear,200,2012-10-13 19:55:00
3:15 PM,76.6,62.1,61,29.94,10.0,SSW,24.2,28.8,N/A,,Clear,200,2012-10-13 20:15:00
3:35 PM,75.4,55.8,50,-9999,-9999.0,SSW,24.2,28.8,N/A,,Unknown,200,2012-10-13 20:35:00
3:55 PM,75.0,62.2,64,29.93,10.0,South,20.7,25.3,N/A,,Mostly Cloudy,190,2012-10-13 20:55:00
4:15 PM,74.7,61.9,64,29.94,10.0,South,16.1,24.2,N/A,,Scattered Clouds,190,2012-10-13 21:15:00
4:55 PM,73.6,61.7,66,29.92,10.0,South,20.7,27.6,N/A,,Clear,170,2012-10-13 21:55:00
5:15 PM,72.1,62.4,71,29.92,10.0,South,20.7,25.3,N/A,,Clear,180,2012-10-13 22:15:00
5:55 PM,70.7,61.9,74,29.92,10.0,South,18.4,23.0,N/A,,Clear,180,2012-10-13 22:55:00
6:15 PM,70.2,61.9,75,29.93,10.0,South,17.3,24.2,N/A,,Clear,190,2012-10-13 23:15:00
6:35 PM,70.0,61.9,75,29.93,10.0,South,15.0,20.7,N/A,,Clear,180,2012-10-13 23:35:00
6:55 PM,69.6,61.9,76,29.93,10.0,South,13.8,-,N/A,,Clear,180,2012-10-13 23:55:00
8:35 PM,68.9,62.6,80,29.91,10.0,SSE,9.2,-,N/A,,Overcast,160,2012-10-14 01:35:00
8:55 PM,69.1,62.6,80,29.90,10.0,SSE,8.1,-,N/A,,Mostly Cloudy,150,2012-10-14 01:55:00
9:15 PM,69.1,62.8,80,29.89,10.0,SE,9.2,-,N/A,Thunderstorm,Scattered Clouds,140,2012-10-14 02:15:00
9:55 PM,69.1,63.0,81,29.87,10.0,SE,9.2,-,N/A,,Scattered Clouds,140,2012-10-14 02:55:00
10:15 PM,69.8,63.0,79,29.86,10.0,SE,11.5,-,N/A,,Scattered Clouds,140,2012-10-14 03:15:00
10:55 PM,70.3,62.2,75,29.83,10.0,SSE,19.6,25.3,N/A,,Mostly Cloudy,160,2012-10-14 03:55:00
11:35 PM,69.8,61.3,74,29.81,10.0,South,18.4,-,N/A,,Mostly Cloudy,170,2012-10-14 04:35:00